METEOSAT-9 (MSG-2)

Last updated on Oct. 25, 2020, 5:55 a.m. UTC

1 28912U 05049B   20298.69281743  .00000009  00000-0  00000+0 0  9999
2 28912   4.6983  69.5713 0000739  48.5760 168.4077  1.00278611 54406
UTC
Height (km)
Latitude
Longitude
Inclination
Orbital Period
UTC large
Height (km)
Speed (km/s)
/
Latitude / Longitude
Inclination (degrees)
Orbital Period (minutes)
Azimuth
Elevation
Range (km)
Doppler Factor
iOS Compass Heading
iOS Angle

Next 30 passes for location: Hong Kong

Rise time Rise Azimuth (degrees) Set time Set Azimuth (degrees) Duration Max altitude (degrees)

No matching passes for this satellites